Weather History for Arlington, TX

Change the Weather History Date:

Monday, March 11, 2013

  Actual Average (KRBD) Record (KRBD)
Temperature  
Mean Temperature 46 °F -  
Max Temperature 60 °F 62 °F 82 °F (2006)
Min Temperature 32 °F 44 °F 27 °F (1998)
Degree Days  
Heating Degree Days 19    
Moisture  
Dew Point 26 °F    
Average Humidity 54    
Maximum Humidity 92    
Minimum Humidity 22    
Precipitation  
Precipitation 0.00 in - - ()
Sea Level Pressure  
Sea Level Pressure 30.07 in    
Wind  
Wind Speed 5 mph (NW)    
Max Wind Speed 15 mph    
Max Gust Speed 23 mph    
Visibility 10 miles    
Events      
Averages and records for this station are not official NWS values.
T = Trace of Precipitation, MM = Missing Value Source: NWS Daily Summary

Daily Weather History Graph

Daily Weather History Graph

Search for Another Location

Airport:

Trip Planner

Search our weather history database for the weather conditions in past years. The results will help you decide how hot, cold, wet, or windy it might be!

Date:

Astronomy

Mar. 11, 2013 Rise Set
Actual Time 7:43 AM CDT 7:33 PM CDT
Civil Twilight 7:18 AM CDT 7:58 PM CDT
Nautical Twilight 6:50 AM CDT 8:26 PM CDT
Astronomical Twilight 6:21 AM CDT 8:55 PM CDT
Moon 7:19 AM CDT (3/11) 7:43 PM CDT (3/11)
Length of Visible Light 12h 39m
Length of Day
11h 50m
Waning Crescent, 0% of the Moon is Illuminated
Mar 11
Waning Crescent
Mar 11
New
Mar 19
First Quarter
Mar 27
Full
Apr 2
Last Quarter

Hourly Weather History & Observations

Time (CDT) Temp. Windchill Dew Point Humidity Pressure Visibility Wind Dir Wind Speed Gust Speed Precip Events Conditions
12:53 AM 39.9 °F 37.8 °F 30.9 °F 70% 30.07 in 10.0 mi WNW 3.5 mph - N/A   Clear
1:53 AM 36.0 °F - 30.9 °F 82% 30.09 in 10.0 mi Calm Calm - N/A   Clear
2:53 AM 36.0 °F - 30.9 °F 82% 30.10 in 10.0 mi Calm Calm - N/A   Clear
3:53 AM 33.1 °F - 30.0 °F 89% 30.10 in 10.0 mi Calm Calm - N/A   Clear
4:53 AM 32.0 °F - 30.0 °F 92% 30.08 in 10.0 mi Calm Calm - N/A   Clear
5:53 AM 33.1 °F 28.7 °F 30.0 °F 89% 30.09 in 10.0 mi WNW 4.6 mph - N/A   Clear
6:53 AM 35.1 °F 31.0 °F 28.0 °F 76% 30.09 in 10.0 mi West 4.6 mph - N/A   Clear
7:53 AM 34.0 °F 27.2 °F 26.1 °F 73% 30.12 in 10.0 mi WNW 8.1 mph - N/A   Clear
8:53 AM 37.0 °F 29.3 °F 25.0 °F 62% 30.12 in 10.0 mi WNW 11.5 mph - N/A   Clear
9:53 AM 39.0 °F 31.0 °F 23.0 °F 53% 30.13 in 10.0 mi NW 13.8 mph 23.0 mph N/A   Clear
10:53 AM 42.1 °F 35.2 °F 19.9 °F 41% 30.14 in 10.0 mi NW 12.7 mph - N/A   Clear
11:53 AM 46.0 °F 39.9 °F 19.0 °F 34% 30.13 in 10.0 mi NNW 13.8 mph - N/A   Clear
12:53 PM 48.9 °F - 19.0 °F 31% 30.12 in 10.0 mi NW 15.0 mph 23.0 mph N/A   Clear
1:53 PM 52.0 °F - 19.9 °F 28% 30.10 in 10.0 mi WNW 12.7 mph 19.6 mph N/A   Clear
2:53 PM 55.0 °F - 19.9 °F 25% 30.06 in 10.0 mi NNW 10.4 mph - N/A   Clear
3:53 PM 57.0 °F - 19.0 °F 23% 30.03 in 10.0 mi WNW 9.2 mph 17.3 mph N/A   Clear
4:53 PM 60.1 °F - 21.0 °F 22% 30.01 in 10.0 mi NW 12.7 mph - N/A   Clear
5:53 PM 60.1 °F - 21.0 °F 22% 30.01 in 10.0 mi NNW 8.1 mph - N/A   Clear
6:53 PM 59.0 °F - 25.0 °F 27% 30.01 in 10.0 mi NW 9.2 mph - N/A   Clear
7:53 PM 54.0 °F - 27.0 °F 35% 30.01 in 10.0 mi Calm Calm - N/A   Clear
8:53 PM 48.9 °F - 30.0 °F 48% 30.02 in 10.0 mi Calm Calm - N/A   Clear
9:53 PM 46.0 °F - 30.9 °F 56% 30.04 in 10.0 mi Calm Calm - N/A   Clear
10:53 PM 42.1 °F - 32.0 °F 67% 30.05 in 10.0 mi Calm Calm - N/A   Clear
11:53 PM 39.9 °F 36.7 °F 32.0 °F 73% 30.06 in 10.0 mi ESE 4.6 mph - N/A   Clear